FW6583 Weather Reports


Display with metric or nautical units.
time (UTC)temp
F
wind
direction
speed
MPH
gust
MPH
rain 1hr
in
rain 24hr
in
rain mn
in
humidity
%
barometer
mb
20260506212025 53 0 0.0 0.0 0.00 0.49 0.49 92 1014.6
20260506211540 53 0 0.0 0.0 0.00 0.49 0.49 92 1014.5
20260506211024 53 0 0.0 0.0 0.00 0.49 0.49 92 1014.4
20260506210523 53 0 0.0 0.0 0.00 0.49 0.49 92 1014.3
20260506210053 53 0 0.0 0.0 0.00 0.49 0.49 91 1014.2
20260506205523 53 0 0.0 1.0 0.00 0.49 0.49 91 1014.2
20260506205023 53 0 0.0 1.0 0.00 0.49 0.49 91 1014.1
20260506204541 53 323 0.0 1.0 0.00 0.49 0.49 91 1014.1
20260506204023 53 319 0.0 1.0 0.00 0.49 0.49 92 1014.0
20260506203524 53 352 0.0 1.0 0.00 0.49 0.49 92 1014.2
20260506203040 53 0 0.0 0.0 0.00 0.49 0.49 93 1014.1
20260506202523 53 0 0.0 2.0 0.00 0.49 0.49 93 1013.9
20260506202023 53 0 0.0 2.0 0.00 0.49 0.49 92 1014.0
20260506201545 53 317 0.0 1.0 0.00 0.49 0.49 92 1014.2
20260506201024 53 0 1.0 1.0 0.00 0.49 0.49 93 1014.1
20260506200522 53 0 0.0 2.0 0.00 0.49 0.49 93 1014.1
20260506200039 52 304 1.0 2.0 0.00 0.49 0.49 93 1014.0
20260506195524 52 0 0.0 2.0 0.00 0.49 0.49 93 1013.8
20260506195024 53 0 0.0 2.0 0.00 0.49 0.49 94 1013.8
20260506194544 52 0 0.0 2.0 0.00 0.49 0.49 94 1013.9
20260506194027 52 0 0.0 2.0 0.00 0.49 0.49 94 1013.9
20260506193523 52 0 0.0 1.0 0.00 0.49 0.49 95 1013.7
20260506193041 52 302 0.0 1.0 0.00 0.49 0.49 95 1013.8
20260506192524 52 0 0.0 2.0 0.00 0.49 0.49 95 1013.8
20260506192028 52 0 0.0 2.0 0.00 0.49 0.49 95 1013.9
20260506191543 52 0 1.0 2.0 0.00 0.49 0.49 95 1013.9
20260506191024 52 302 0.0 5.0 0.00 0.49 0.49 95 1013.9
20260506190524 52 321 1.0 5.0 0.00 0.49 0.49 95 1013.9
20260506190043 52 314 1.0 5.0 0.00 0.49 0.49 95 1014.0
20260506185524 52 319 0.0 3.0 0.00 0.49 0.49 96 1013.7
20260506185024 52 300 1.0 4.0 0.00 0.49 0.49 95 1013.7
20260506184542 53 302 2.0 6.0 0.00 0.49 0.49 95 1013.7
20260506184025 53 292 1.0 6.0 0.00 0.49 0.49 95 1013.5
20260506183527 53 35 2.0 5.0 0.01 0.49 0.49 95 1013.6
20260506183045 53 59 1.0 3.0 0.01 0.49 0.49 96 1013.6
20260506182530 53 300 1.0 4.0 0.01 0.49 0.49 95 1013.3
20260506182030 53 302 1.0 4.0 0.01 0.49 0.49 96 1013.2
20260506181546 54 305 0.0 4.0 0.01 0.49 0.49 96 1013.3
20260506181027 54 274 0.0 2.0 0.01 0.49 0.49 96 1013.3
20260506180527 54 0 1.0 2.0 0.01 0.49 0.49 96 1013.4
20260506180047 54 331 0.0 0.0 0.01 0.49 0.49 96 1013.5
20260506175526 54 0 0.0 0.0 0.01 0.49 0.49 96 1013.4
20260506175023 54 0 0.0 0.0 0.01 0.49 0.49 97 1013.5
20260506174544 54 0 0.0 0.0 0.01 0.49 0.49 96 1013.4
20260506174026 54 0 0.0 0.0 0.01 0.49 0.49 96 1013.5
20260506173527 54 0 0.0 1.0 0.00 0.48 0.48 96 1013.4
20260506173047 54 0 0.0 1.0 0.00 0.48 0.48 96 1013.3
20260506172527 54 345 0.0 1.0 0.00 0.48 0.48 96 1013.3
20260506172030 54 358 0.0 1.0 0.00 0.48 0.48 96 1013.3
20260506171556 54 0 0.0 1.0 0.00 0.48 0.48 96 1013.0
20260506171027 54 344 0.0 2.0 0.00 0.48 0.48 96 1013.2
20260506170530 54 322 0.0 2.0 0.01 0.48 0.48 96 1013.0
20260506170050 54 307 1.0 2.0 0.02 0.48 0.48 96 1013.1
20260506165524 54 311 0.0 2.0 0.03 0.48 0.48 96 1013.2
20260506165028 54 293 0.0 4.0 0.03 0.48 0.48 96 1013.1
20260506164546 54 18 1.0 4.0 0.03 0.48 0.48 96 1013.1
20260506164027 54 357 2.0 4.0 0.03 0.48 0.48 96 1012.9
20260506163527 55 311 1.0 6.0 0.03 0.48 0.48 96 1012.8
20260506163045 55 305 1.0 6.0 0.03 0.48 0.48 96 1012.7
20260506162530 55 295 1.0 3.0 0.04 0.48 0.48 96 1012.7
20260506162026 55 317 0.0 4.0 0.04 0.48 0.48 96 1012.7
20260506161544 56 313 1.0 4.0 0.04 0.48 0.48 96 1012.5
20260506161023 56 300 2.0 5.0 0.05 0.48 0.48 96 1012.5
20260506160528 57 1 2.0 5.0 0.04 0.47 0.47 96 1012.3
20260506160057 58 307 0.0 3.0 0.04 0.46 0.46 98 1012.2
20260506155524 58 0 0.0 0.0 0.03 0.45 0.45 98 1011.9
20260506155027 58 0 0.0 0.0 0.03 0.45 0.45 98 1011.9
20260506154542 58 0 0.0 0.0 0.03 0.45 0.45 98 1011.8
20260506154029 58 0 0.0 2.0 0.03 0.45 0.45 98 1011.8
20260506153527 58 0 0.0 2.0 0.03 0.45 0.45 98 1011.9
20260506153043 58 278 1.0 2.0 0.03 0.45 0.45 98 1011.9
20260506152526 58 0 1.0 4.0 0.02 0.44 0.44 98 1011.8
20260506152027 58 278 1.0 4.0 0.02 0.44 0.44 98 1011.7
20260506151545 58 286 0.0 3.0 0.02 0.44 0.44 98 1011.6
20260506151026 58 18 0.0 3.0 0.01 0.43 0.43 97 1011.5
20260506150526 58 37 1.0 3.0 0.01 0.43 0.43 97 1011.5
20260506150052 58 21 1.0 3.0 0.00 0.42 0.42 98 1011.5
20260506145527 58 309 0.0 3.0 0.00 0.42 0.42 98 1011.4
20260506145023 58 247 0.0 3.0 0.00 0.42 0.42 98 1011.4
20260506144557 58 20 0.0 3.0 0.00 0.42 0.42 98 1011.2
20260506144028 58 0 0.0 4.0 0.00 0.42 0.42 98 1011.2
20260506143525 57 307 1.0 4.0 0.00 0.42 0.42 98 1011.0
20260506143046 57 340 0.0 3.0 0.00 0.42 0.42 98 1010.8
20260506142526 57 314 0.0 3.0 0.00 0.42 0.42 98 1010.8
20260506142026 57 5 1.0 3.0 0.00 0.42 0.42 98 1010.7
20260506141543 57 330 0.0 4.0 0.00 0.42 0.42 98 1010.6
20260506141027 57 334 2.0 4.0 0.00 0.42 0.42 98 1010.6
20260506140527 57 44 0.0 2.0 0.00 0.42 0.42 98 1010.4
20260506140044 57 25 0.0 2.0 0.00 0.42 0.42 98 1010.4
20260506135530 57 0 0.0 3.0 0.00 0.42 0.42 98 1010.4
20260506135026 57 32 1.0 3.0 0.00 0.42 0.42 98 1010.4
20260506134545 57 311 0.0 4.0 0.00 0.42 0.42 98 1010.4
20260506134029 57 37 1.0 4.0 0.00 0.42 0.42 98 1010.7
20260506133523 56 326 0.0 3.0 0.00 0.42 0.42 98 1010.7
20260506133040 56 11 1.0 3.0 0.00 0.42 0.42 97 1010.7
20260506132530 56 335 0.0 3.0 0.01 0.42 0.42 97 1010.6
20260506132023 56 325 0.0 2.0 0.01 0.42 0.42 97 1010.6
20260506131548 56 0 0.0 1.0 0.01 0.42 0.42 97 1010.6
20260506131029 56 0 0.0 1.0 0.01 0.42 0.42 97 1010.3
20260506130523 56 24 0.0 2.0 0.02 0.42 0.42 97 1010.4
20260506130038 56 23 0.0 2.0 0.02 0.42 0.42 97 1010.3
20260506125526 56 23 0.0 2.0 0.02 0.42 0.42 97 1010.5
20260506125026 56 0 0.0 2.0 0.03 0.42 0.42 97 1010.5
20260506124546 56 31 0.0 2.0 0.03 0.42 0.42 97 1010.5
20260506124030 56 30 0.0 2.0 0.03 0.42 0.42 97 1010.6
20260506123527 56 0 0.0 2.0 0.03 0.42 0.42 97 1010.6
20260506123050 56 57 0.0 2.0 0.03 0.42 0.42 97 1010.6
20260506122527 56 0 0.0 1.0 0.02 0.41 0.41 97 1010.6
20260506122030 56 0 0.0 1.0 0.02 0.41 0.41 97 1010.5
20260506121542 56 0 0.0 3.0 0.03 0.41 0.41 97 1010.6
20260506121024 55 25 0.0 3.0 0.03 0.41 0.41 97 1010.6
20260506120527 55 25 0.0 1.0 0.02 0.40 0.40 97 1010.6
20260506120039 55 0 0.0 1.0 0.02 0.40 0.40 97 1010.6
20260506115523 55 15 0.0 1.0 0.01 0.39 0.39 97 1010.7
20260506115023 55 0 0.0 2.0 0.02 0.39 0.39 97 1010.5
20260506114543 55 0 0.0 2.0 0.02 0.39 0.39 97 1010.5
20260506114024 55 0 0.0 3.0 0.03 0.39 0.39 97 1010.4
20260506113524 55 6 0.0 4.0 0.03 0.39 0.39 97 1010.4
20260506113046 55 334 1.0 4.0 0.04 0.39 0.39 97 1010.4
20260506112523 55 34 2.0 4.0 0.04 0.39 0.39 97 1010.3
20260506112023 55 94 0.0 2.0 0.05 0.39 0.39 97 1010.4
20260506111547 55 27 1.0 2.0 0.05 0.38 0.38 97 1010.5
20260506111023 55 2 0.0 1.0 0.05 0.38 0.38 96 1010.3
20260506110526 55 0 0.0 1.0 0.06 0.38 0.38 96 1010.4
20260506110044 55 0 0.0 1.0 0.07 0.38 0.38 96 1010.4
20260506105527 55 0 0.0 1.0 0.09 0.38 0.38 96 1010.3
20260506105025 55 0 0.0 1.0 0.10 0.37 0.37 96 1010.4
20260506104544 55 0 0.0 1.0 0.13 0.37 0.37 96 1010.6
20260506104023 55 0 0.0 0.0 0.14 0.36 0.36 96 1010.6
20260506103523 55 0 0.0 0.0 0.16 0.36 0.36 96 1010.5
20260506103039 55 0 0.0 0.0 0.17 0.35 0.35 96 1010.5
20260506102523 55 0 0.0 0.0 0.19 0.35 0.35 96 1010.6
20260506102024 55 0 0.0 0.0 0.21 0.34 0.34 96 1010.5
20260506101543 55 0 0.0 0.0 0.22 0.33 0.33 96 1010.6
20260506101024 55 0 0.0 1.0 0.24 0.33 0.33 95 1010.5
20260506100523 55 0 0.0 1.0 0.24 0.32 0.32 95 1010.4
20260506100055 55 40 0.0 1.0 0.25 0.31 0.31 95 1010.4
20260506095524 55 0 0.0 2.0 0.24 0.29 0.29 95 1010.4
20260506095024 55 0 0.0 2.0 0.23 0.27 0.27 94 1010.5
20260506094543 55 56 0.0 0.0 0.20 0.24 0.24 94 1010.7
20260506094023 56 0 0.0 1.0 0.17 0.21 0.21 94 1010.7
20260506093525 56 0 0.0 1.0 0.16 0.19 0.19 94 1010.7
20260506093043 56 0 0.0 2.0 0.16 0.18 0.18 93 1010.7
20260506092526 56 0 0.0 2.0 0.14 0.16 0.16 93 1010.8
20260506092023 56 0 0.0 2.0 0.12 0.13 0.13 93 1010.9
20260506091540 56 61 0.0 2.0 0.09 0.10 0.10 92 1011.1
20260506091057 56 25 0.0 2.0 0.09 0.09 0.09 92 1011.0
20260506090523 56 222 0.0 2.0 0.07 0.07 0.07 92 1010.9
20260506090046 56 232 0.0 1.0 0.06 0.06 0.06 91 1010.9
20260506085526 56 257 0.0 1.0 0.05 0.05 0.05 91 1010.9
20260506085024 57 215 0.0 1.0 0.04 0.04 0.04 90 1010.7
20260506084546 57 98 0.0 1.0 0.04 0.04 0.04 89 1010.6
20260506084024 57 0 0.0 1.0 0.04 0.04 0.04 88 1010.7
20260506083524 58 0 0.0 0.0 0.03 0.03 0.03 88 1010.8
20260506083043 58 0 0.0 0.0 0.02 0.02 0.02 86 1010.9
20260506082526 58 0 0.0 1.0 0.02 0.02 0.02 84 1010.7
20260506082026 59 0 0.0 2.0 0.01 0.01 0.01 81 1010.5
20260506081548 60 52 0.0 2.0 0.01 0.01 0.01 79 1010.3
20260506081027 60 35 1.0 1.0 0.00 0.00 0.00 75 1010.2
20260506080526 60 0 0.0 1.0 0.00 0.00 0.00 76 1010.3
20260506073524 61 115 0.0 1.0 0.00 0.00 0.00 72 1010.0
20260506073047 61 0 0.0 1.0 0.00 0.00 0.00 72 1010.0
20260506072525 61 0 0.0 1.0 0.00 0.00 0.00 70 1010.0
20260506072027 61 0 0.0 1.0 0.00 0.00 0.00 72 1009.9
20260506071555 61 115 0.0 1.0 0.00 0.00 0.00 73 1010.1
20260506071024 61 117 1.0 1.0 0.00 0.00 0.00 73 1010.2
20260506070523 61 0 0.0 0.0 0.00 0.00 0.00 72 1010.3
20260506062026 61 0 0.0 2.0 0.00 0.00 0.00 71 1010.4
20260506061539 62 129 2.0 2.0 0.00 0.00 0.00 70 1010.4
20260506061026 62 122 1.0 2.0 0.00 0.00 0.00 70 1010.5
20260506060527 62 114 1.0 2.0 0.00 0.00 0.00 70 1010.8
20260506051024 63 0 0.0 0.0 0.00 0.00 0.00 65 1011.9
20260506050523 63 0 0.0 0.0 0.00 0.00 0.00 65 1011.9
20260506045027 63 0 0.0 0.0 0.00 0.00 0.00 65 1011.9
20260506044544 64 0 0.0 0.0 0.00 0.00 0.00 63 1011.9
20260506044025 64 0 0.0 1.0 0.00 0.00 0.00 63 1011.7
20260506043523 64 0 0.0 1.0 0.00 0.00 0.00 62 1011.5
20260506043047 64 0 0.0 1.0 0.00 0.00 0.00 62 1011.5
20260506042528 64 0 0.0 1.0 0.00 0.00 0.00 61 1011.7
20260506042024 64 0 0.0 1.0 0.00 0.00 0.00 61 1011.4
20260506041542 64 0 0.0 1.0 0.00 0.00 0.00 61 1011.7
20260506041025 65 0 0.0 1.0 0.00 0.00 0.00 60 1011.7
20260506040525 65 0 0.0 1.0 0.00 0.00 0.00 61 1011.7
20260506040048 65 0 0.0 1.0 0.00 0.00 0.00 60 1011.8
20260506035528 65 0 0.0 0.0 0.00 0.00 0.00 59 1011.5
20260506035025 65 98 0.0 0.0 0.00 0.00 0.00 59 1011.4
20260506034540 65 0 0.0 2.0 0.00 0.00 0.00 59 1011.3
20260506034025 66 0 0.0 2.0 0.00 0.00 0.00 58 1011.3
20260506033525 66 98 1.0 2.0 0.00 0.00 0.00 58 1011.4
20260506033039 66 107 0.0 1.0 0.00 0.00 0.00 59 1011.6
20260506032525 66 0 0.0 1.0 0.00 0.00 0.00 57 1011.5
20260506032028 66 104 0.0 2.0 0.00 0.00 0.00 57 1011.6
20260506031546 66 0 0.0 2.0 0.00 0.00 0.00 57 1011.6
20260506031025 67 107 1.0 1.0 0.00 0.00 0.00 56 1011.4
20260506030527 66 53 0.0 1.0 0.00 0.00 0.00 55 1011.7
20260506030059 67 243 0.0 1.0 0.00 0.00 0.00 56 1011.9
20260506025524 66 0 0.0 1.0 0.00 0.00 0.00 56 1011.8
20260506025027 67 0 0.0 1.0 0.00 0.00 0.00 55 1011.7
20260506024555 67 67 0.0 1.0 0.00 0.00 0.00 55 1011.7
20260506024025 67 0 0.0 1.0 0.00 0.00 0.00 55 1011.6
20260506023525 67 68 0.0 1.0 0.00 0.00 0.00 55 1011.6
20260506023044 67 253 0.0 1.0 0.00 0.00 0.00 55 1011.8
20260506022524 67 0 0.0 1.0 0.00 0.00 0.00 55 1011.9
20260506022024 67 0 0.0 3.0 0.00 0.00 0.00 56 1011.9
20260506021539 67 0 0.0 5.0 0.00 0.00 0.00 56 1012.0
20260506021024 67 217 0.0 5.0 0.00 0.00 0.00 55 1012.2
20260506020529 67 302 2.0 5.0 0.00 0.00 0.00 54 1012.2
20260506020045 66 241 1.0 3.0 0.00 0.00 0.00 57 1012.3
20260506015524 66 0 0.0 0.0 0.00 0.00 0.00 57 1012.3
20260506015024 66 0 0.0 0.0 0.00 0.00 0.00 56 1012.2
20260506014555 67 0 0.0 1.0 0.00 0.00 0.00 56 1012.2
20260506014024 67 0 0.0 1.0 0.00 0.00 0.00 56 1012.1
20260506013523 67 0 0.0 1.0 0.00 0.00 0.00 56 1012.0
20260506013044 67 0 0.0 1.0 0.00 0.00 0.00 55 1012.0
20260506012526 67 0 0.0 0.0 0.00 0.00 0.00 55 1011.7
20260506012027 67 0 0.0 1.0 0.00 0.00 0.00 55 1011.6
20260506011542 67 0 0.0 1.0 0.00 0.00 0.00 54 1011.7
20260506011023 67 0 0.0 1.0 0.00 0.00 0.00 54 1011.7
20260506010523 67 68 0.0 1.0 0.00 0.00 0.00 54 1011.8
20260506010050 68 68 0.0 1.0 0.00 0.00 0.00 54 1011.7
20260506005525 68 0 0.0 1.0 0.00 0.00 0.00 54 1011.8
20260506005023 68 0 0.0 1.0 0.00 0.00 0.00 54 1011.7
20260506004548 68 42 0.0 1.0 0.00 0.00 0.00 53 1011.7
20260506004024 68 42 0.0 0.0 0.00 0.00 0.00 53 1012.0
20260506003526 68 0 0.0 1.0 0.00 0.00 0.00 53 1011.9
20260506003042 68 0 0.0 1.0 0.00 0.00 0.00 53 1011.8
20260506002526 69 0 0.0 1.0 0.00 0.00 0.00 52 1011.8
20260506002026 69 0 0.0 2.0 0.00 0.00 0.00 52 1011.7
20260506001551 69 37 0.0 2.0 0.00 0.00 0.00 52 1011.8
20260506001026 69 0 0.0 1.0 0.00 0.00 0.00 51 1011.8
20260506000524 69 0 0.0 2.0 0.00 0.00 0.00 51 1011.9
20260506000042 70 0 0.0 3.0 0.00 0.00 0.00 51 1011.8
20260505235525 70 0 0.0 3.0 0.00 0.00 0.00 49 1011.7
20260505235025 69 50 0.0 3.0 0.00 0.00 0.00 50 1011.8
20260505234545 70 64 0.0 1.0 0.00 0.00 0.00 51 1011.9
20260505234026 70 0 0.0 2.0 0.00 0.00 0.00 52 1011.9
20260505233524 70 0 0.0 3.0 0.00 0.00 0.00 52 1011.9
20260505233039 70 0 0.0 3.0 0.00 0.00 0.00 51 1011.8
20260505232523 71 23 0.0 3.0 0.00 0.00 0.00 50 1011.7
20260505232026 71 0 0.0 3.0 0.00 0.00 0.00 50 1011.6
20260505231541 71 222 0.0 3.0 0.00 0.00 0.00 51 1011.6
20260505231026 71 203 0.0 2.0 0.00 0.00 0.00 51 1011.7
20260505230526 71 0 0.0 2.0 0.00 0.00 0.00 51 1011.6
20260505230046 71 18 0.0 2.0 0.00 0.00 0.00 51 1011.6
20260505225526 71 0 0.0 3.0 0.00 0.00 0.00 51 1011.6
20260505225028 71 0 1.0 3.0 0.00 0.00 0.00 52 1011.7
20260505224548 71 303 0.0 4.0 0.00 0.00 0.00 52 1011.8
20260505224026 71 282 1.0 4.0 0.00 0.00 0.00 49 1011.9
20260505223525 71 0 0.0 4.0 0.00 0.00 0.00 50 1011.9
20260505223047 71 339 1.0 3.0 0.00 0.00 0.00 48 1012.0
20260505222525 71 99 0.0 3.0 0.00 0.00 0.00 50 1012.2
20260505222025 72 269 0.0 5.0 0.00 0.00 0.00 49 1012.2
20260505221546 72 293 1.0 5.0 0.00 0.00 0.00 48 1012.3
20260505221023 72 13 1.0 5.0 0.00 0.00 0.00 49 1012.2
20260505220525 72 47 1.0 5.0 0.00 0.00 0.00 49 1012.3
20260505220045 72 266 1.0 4.0 0.00 0.00 0.00 48 1012.4
20260505215526 72 18 1.0 7.0 0.00 0.00 0.00 48 1012.3
20260505215027 72 108 1.0 7.0 0.00 0.00 0.00 49 1012.4
20260505214539 73 3 2.0 7.0 0.00 0.00 0.00 48 1012.4
20260505214023 73 291 1.0 6.0 0.00 0.00 0.00 49 1012.5
20260505213529 73 320 1.0 5.0 0.00 0.00 0.00 48 1012.5
20260505213048 73 253 1.0 5.0 0.00 0.00 0.00 49 1012.5
20260505212528 73 290 2.0 6.0 0.00 0.00 0.00 48 1012.5